Flag for U.S.A. Weather past 2 weeks in Boston, Massachusetts, U.S.A.

Now
71 °F

Clear.


Feels Like: 75 °F
Forecast: 66 / 83 °F
Wind: 9 mph from Southwest

Location: Logan International Airport

Current Time: Jul 26, 2014 at 1:34:51 AM

Latest Report: Jul 25, 2014 at 11:54 PM


Visibility: 10 mi

Pressure: 29.97 "Hg

Humidity: 66%

Dew point: 59 °F

Location of BostonLocation

Historic Weather in Boston — Graph

°F

Boston temperature yesterday

Maximum temperature yesterday: 81 °F (at 3:54 PM)
Minimum temperature yesterday: 62 °F (at 5:54 AM)
Average temperature yesterday: 73 °F

Past Weeks' High & Low Weather Summary

 TemperatureHumidityPressure
High91 °F (Jul 23, 2:54 PM)97% (Jul 14, 8:54 PM)30.27 "Hg (Jul 14, 8:54 PM)
Low61 °F (Jul 20, 3:54 AM)38% (Jul 25, 2:54 PM)29.74 "Hg (Jul 23, 4:54 PM)
Average72 °F73%30.01 "Hg
* Reported Jul 10 11:54 PM — Jul 25 11:54 PM, Boston, Weather by CustomWeather, © 2014

Note: Actual official high and low records may vary slightly from our data, if they occured in-between our weather recording intervals... More about our weather records

Advertising

Boston weather history for previous 24 hours

 ConditionsComfort  
Time TempWeatherWind HumidityBarometerVisibility
11:54 PM
Jul 25
71 °FClear.9 mph66%29.97 "Hg10 mi
10:54 PM72 °FClear.9 mph64%29.97 "Hg9 mi
9:54 PM74 °FClear.7 mph60%29.96 "Hg8 mi
8:54 PM76 °FSunny.8 mph52%29.95 "Hg8 mi
7:54 PM79 °FPassing clouds.7 mph41%29.93 "Hg7 mi
6:54 PM80 °FPartly sunny.9 mph41%29.92 "Hg7 mi
5:54 PM81 °FBroken clouds.9 mph39%29.92 "Hg7 mi
4:54 PM81 °FScattered clouds.9 mph41%29.92 "Hg10 mi
3:54 PM81 °FScattered clouds.No wind41%29.93 "Hg10 mi
2:54 PM80 °FPassing clouds.5 mph38%29.93 "Hg10 mi
1:54 PM78 °FPassing clouds.5 mph42%29.93 "Hg10 mi
12:54 PM76 °FPassing clouds.12 mph45%29.95 "Hg10 mi
11:54 AM74 °FSunny.7 mph46%29.97 "Hg10 mi
10:54 AM73 °FPassing clouds.7 mph50%29.98 "Hg10 mi
9:54 AM74 °FPassing clouds.3 mph41%29.97 "Hg10 mi
8:54 AM71 °FPassing clouds.6 mph51%29.96 "Hg10 mi
7:54 AM67 °FScattered clouds.8 mph59%29.96 "Hg10 mi
6:54 AM63 °FScattered clouds.7 mph68%29.96 "Hg10 mi
5:54 AM62 °FPassing clouds.12 mph70%29.94 "Hg10 mi
4:54 AM63 °FPassing clouds.12 mph68%29.93 "Hg10 mi
3:54 AM64 °FPassing clouds.12 mph65%29.91 "Hg10 mi
2:54 AM66 °FPassing clouds.9 mph63%29.91 "Hg10 mi
1:54 AM67 °FClear.9 mph66%29.90 "Hg10 mi
Weather by CustomWeather, © 2014

See weather overviewHow to use our weather pages